Location: Hermaringen
(48.5952°N, 10.2585°E)
Time: 20:26:31
(UTC+00:00)

Vanguard 1 - Visible Passes

Search period start: 15 February 2026 00:00
Search period end: 25 February 2026 00:00
Orbit: 652 x 3820 km, 34.3° (Epoch: 13 February)

Date Brightness Start Highest point End Pass type
(mag) Time Alt. Az. Time Alt. Az. Time Alt. Az.
15 Feb 13.1 16:44:16 10° WSW 16:58:23 50° S 17:19:33 10° ESE visible
15 Feb 13.2 19:04:56 10° W 19:22:19 48° SSW 19:36:09 26° SE visible
15 Feb 13.5 21:28:46 10° W 21:45:48 30° SW 21:48:44 29° SSW visible
16 Feb 13.1 17:03:17 10° WSW 17:17:38 51° S 17:39:00 10° ESE visible
16 Feb 13.3 19:24:20 10° W 19:41:35 44° SSW 19:54:33 26° SSE visible
16 Feb 13.7 21:49:09 10° W 22:04:37 25° SW 22:07:08 24° SW visible
17 Feb 13.1 17:22:23 10° WSW 17:36:56 51° S 17:58:20 10° ESE visible
17 Feb 13.4 19:43:52 10° W 20:00:47 40° SSW 20:13:00 25° SSE visible
17 Feb 13.8 22:10:11 10° W 22:23:20 19° SW 22:25:37 19° SW visible
18 Feb 13.1 17:41:34 10° WSW 17:56:15 49° S 18:17:32 10° ESE visible
18 Feb 13.5 20:03:32 10° W 20:19:54 35° SSW 20:31:33 23° S visible
18 Feb 14.0 22:32:38 10° WSW 22:41:59 14° SW 22:44:10 14° SW visible
19 Feb 13.2 18:00:50 10° WSW 18:15:33 46° SSW 18:36:32 10° SE visible
19 Feb 13.6 20:23:27 10° W 20:38:58 30° SW 20:50:12 20° S visible
20 Feb 13.3 18:20:10 10° W 18:34:51 43° SSW 18:55:19 10° SE visible
20 Feb 13.8 20:43:43 10° W 20:57:56 25° SW 21:08:56 17° S visible
21 Feb 13.4 18:39:38 10° W 18:54:06 38° SSW 19:13:50 10° SE visible
21 Feb 14.0 21:04:38 10° W 21:16:50 19° SW 21:27:47 13° SSW visible
22 Feb 13.5 18:59:14 10° W 19:13:19 34° SSW 19:31:59 10° SSE visible
22 Feb 14.1 21:26:55 10° WSW 21:35:41 14° SW 21:45:06 10° SSW visible
23 Feb 13.2 16:57:26 10° WSW 17:09:32 43° S 17:28:37 10° SE visible
23 Feb 13.7 19:19:05 10° W 19:32:28 28° SSW 19:49:43 10° SSE visible
24 Feb 13.3 17:16:45 10° WSW 17:28:49 40° SSW 17:47:26 10° SE visible
24 Feb 13.8 19:39:19 10° W 19:51:34 23° SW 20:06:50 10° S visible
